Location: Aulnoy
(48.8410°N, 3.0967°E)
Time: 14:12:06
(UTC+00:00)

Lacrosse 4 Rocket - Pass Details

Date: 09 February 2023
Orbit: 535 x 608 km, 68.0° (Epoch: 21 March)

Event Time Altitude Azimuth Distance (km) Brightness Sun altitude
Rises 17:50:30 0° 334° (NNW) 2,851 5.2 -9.1°
Maximum altitude 17:55:58 13° 30° (NNE) 1,746 3.5 -10.0°
Enters shadow 17:57:31 11° 52° (NE) 1,848 3.5 -10.2°
